FW3725 Weather Reports


time (UTC)temp
C
wind
direction
speed
KPH
gust
KPH
rain 1hr
cm
rain 24hr
cm
rain mn
cm
humidity
%
barometer
mb
20260507051506 14 93 0.0 0.0 0.00 0.00 0.00 86 1020.1
20260507050015 13 93 0.0 0.0 0.00 0.00 0.00 85 1020.1
20260507044506 13 93 0.0 0.0 0.00 0.00 0.00 84 1020.2
20260507043004 13 93 0.0 0.0 0.00 0.00 0.00 83 1020.1
20260507041503 14 96 0.0 0.0 0.00 0.00 0.00 82 1019.9
20260507040004 15 68 0.0 0.0 0.00 0.00 0.00 81 1019.7
20260507034502 15 22 0.0 0.0 0.00 0.00 0.00 80 1019.5
20260507033002 16 61 0.0 0.0 0.00 0.00 0.00 79 1019.3
20260507031502 16 64 0.0 0.0 0.00 0.00 0.00 77 1019.0
20260507030000 17 67 0.0 0.0 0.00 0.00 0.00 75 1018.8
20260507024614 17 36 0.0 0.0 0.00 0.00 0.00 73 1018.6
20260507023059 18 59 0.0 0.0 0.00 0.00 0.00 73 1018.4
20260507021600 19 17 0.0 0.0 0.00 0.00 0.00 73 1018.3
20260507014604 20 79 0.0 0.0 0.00 0.00 0.00 70 1018.3
20260507013102 21 281 0.0 0.0 0.00 0.00 0.00 64 1018.2
20260507011559 22 59 0.0 0.0 0.00 0.00 0.00 63 1018.1
20260507010056 22 86 0.0 0.0 0.00 0.00 0.00 62 1018.1
20260507004555 22 78 0.0 0.0 0.00 0.00 0.00 58 1018.1
20260507003100 22 70 0.0 0.0 0.00 0.00 0.00 59 1018.1
20260507001554 22 53 0.0 0.0 0.00 0.00 0.00 59 1018.0
20260507000053 22 263 0.0 0.0 0.00 0.00 0.00 59 1018.1
20260506234603 22 83 0.0 0.0 0.00 0.00 0.00 60 1018.0
20260506233055 22 257 0.0 0.0 0.00 0.00 0.00 59 1018.2
20260506231554 22 40 0.0 0.0 0.00 0.00 0.00 60 1018.3
20260506230046 22 242 0.0 0.0 0.00 0.00 0.00 60 1018.4
20260506224543 22 25 0.0 0.0 0.00 0.00 0.00 60 1018.4
20260506223041 22 66 0.0 0.0 0.00 0.00 0.00 60 1018.6
20260506221537 22 360 0.0 0.0 0.00 0.00 0.00 60 1018.8
20260506220036 22 294 0.0 0.0 0.00 0.00 0.00 60 1018.9
20260506214535 22 259 0.0 0.0 0.00 0.00 0.00 59 1019.2
20260506213038 22 30 0.0 0.0 0.00 0.00 0.00 62 1019.3
20260506211532 22 34 0.0 0.0 0.00 0.00 0.00 60 1019.5
20260506210034 22 91 0.0 0.0 0.00 0.00 0.00 60 1019.8
20260506204529 21 74 0.0 0.0 0.00 0.00 0.00 61 1019.9
20260506203037 21 57 0.0 0.0 0.00 0.00 0.00 61 1020.0
20260506201528 21 238 0.0 0.0 0.00 0.00 0.00 62 1020.2
20260506200025 21 38 0.0 0.0 0.00 0.00 0.00 63 1020.3
20260506194523 20 55 0.0 0.0 0.00 0.00 0.00 62 1020.4
20260506193019 20 283 0.0 0.0 0.00 0.00 0.00 63 1020.5
20260506191518 20 91 0.0 0.0 0.00 0.00 0.00 66 1020.6
20260506190012 19 291 0.0 0.0 0.00 0.00 0.00 67 1020.7
20260506184508 18 63 0.0 0.0 0.00 0.00 0.00 69 1020.8
20260506183008 17 275 0.0 0.0 0.00 0.00 0.00 72 1020.9
20260506181503 17 277 0.0 0.0 0.00 0.00 0.00 74 1021.0
20260506180002 16 271 0.0 0.0 0.00 0.00 0.00 74 1021.0
20260506174502 16 241 0.0 0.0 0.00 0.00 0.00 75 1021.1
20260506173130 16 319 0.0 0.0 0.00 0.00 0.00 76 1021.1
20260506171615 16 286 0.0 0.0 0.00 0.00 0.00 77 1021.2
20260506170055 15 327 0.0 0.0 0.00 0.00 0.00 79 1021.2
20260506164559 15 327 0.0 0.0 0.00 0.00 0.00 80 1021.2
20260506163058 15 290 0.0 0.0 0.00 0.00 0.00 80 1021.2
20260506161603 14 321 0.0 0.0 0.00 0.00 0.00 82 1021.3
20260506160046 14 312 0.0 0.0 0.00 0.00 0.00 83 1021.3
20260506154548 13 302 0.0 0.0 0.00 0.00 0.00 84 1021.3
20260506153040 13 283 0.0 0.0 0.00 0.00 0.00 85 1021.2
20260506151535 13 278 0.0 0.0 0.00 0.00 0.00 85 1021.2
20260506150032 13 279 0.0 0.0 0.00 0.00 0.00 85 1021.2
20260506144534 12 279 0.0 0.0 0.00 0.00 0.00 85 1021.3
20260506143027 12 279 0.0 0.0 0.00 0.00 0.00 85 1021.2
20260506141529 12 307 0.0 0.0 0.00 0.00 0.00 85 1021.0
20260506140023 12 307 0.0 0.0 0.00 0.00 0.00 84 1021.0
20260506134520 12 307 0.0 0.0 0.00 0.00 0.00 84 1020.6
20260506133018 12 346 0.0 0.0 0.00 0.00 0.00 84 1020.4
20260506131527 12 346 0.0 0.0 0.00 0.00 0.00 83 1020.3
20260506130016 12 346 0.0 0.0 0.00 0.00 0.00 83 1020.3
20260506124514 12 346 0.0 0.0 0.00 0.00 0.00 82 1020.1
20260506123014 12 346 0.0 0.0 0.00 0.00 0.00 82 1020.1
20260506121513 12 346 0.0 0.0 0.00 0.00 0.00 82 1020.0
20260506120017 12 346 0.0 0.0 0.00 0.00 0.00 81 1019.9
20260506114511 12 346 0.0 0.0 0.00 0.00 0.00 81 1019.8
20260506113009 12 346 0.0 0.0 0.00 0.00 0.00 81 1019.7
20260506111507 13 346 0.0 0.0 0.00 0.00 0.00 80 1019.7
20260506110006 13 346 0.0 0.0 0.00 0.00 0.00 80 1019.6
20260506104504 13 346 0.0 0.0 0.00 0.00 0.00 80 1019.4
20260506103003 13 346 0.0 0.0 0.00 0.00 0.00 80 1019.4
20260506101506 13 346 0.0 0.0 0.00 0.00 0.00 80 1019.5
20260506100002 13 346 0.0 0.0 0.00 0.00 0.00 80 1019.5
20260506094601 13 346 0.0 0.0 0.00 0.00 0.00 80 1019.5
20260506093059 13 346 0.0 0.0 0.00 0.00 0.00 80 1019.6
20260506091559 13 346 0.0 0.0 0.00 0.00 0.00 80 1019.6
20260506090058 13 346 0.0 0.0 0.00 0.00 0.00 80 1019.4
20260506084622 13 346 0.0 0.0 0.00 0.00 0.00 80 1019.6
20260506083057 13 346 0.0 0.0 0.00 0.00 0.00 80 1019.5
20260506081600 13 346 0.0 0.0 0.00 0.00 0.00 79 1019.6
20260506073051 13 346 0.0 0.0 0.00 0.00 0.00 78 1019.3
20260506071551 13 46 0.0 0.0 0.00 0.00 0.00 78 1019.2
20260506061545 14 51 0.0 0.0 0.00 0.00 0.00 78 1018.9